Volver al catálogo

STARLINK-38010

ActivoComunicacionesSSO
NORAD 69727·PAYLOAD·🇺🇸 United States

Lanzado Jun 28, 2026 desde Vandenberg Space Force Base

Loading…

Próximos Pases (próximas 24 horas)

TLE

ActualizadoSource: CelesTrak SupGP

Época: Sep 15, 2026, 04:08 UTC

1 69727C 26147Z   26258.17270833 -.00054919  00000+0 -36944-3 0  2581
2 69727  97.2841 297.5901 0001015  92.2688 236.7006 15.75188906    14

Sigue STARLINK-38010 en tiempo real con AllMySat

Download on the App Store